| time (UTC) | temp F | wind direction | speed MPH | gust MPH | rain 1hr in | rain 24hr in | rain mn in | humidity % | barometer mb |
| 20260508062528 | 54 | 177 | 0.0 | 0.0 | 0.00 | 0.00 | 0.00 | 51 | 1008.4 |
| 20260508062024 | 54 | 177 | 0.0 | 0.0 | 0.00 | 0.00 | 0.00 | 50 | 1008.3 |
| 20260508061537 | 54 | 178 | 0.0 | 0.0 | 0.00 | 0.00 | 0.00 | 51 | 1008.4 |
| 20260508061028 | 55 | 178 | 0.0 | 0.0 | 0.00 | 0.00 | 0.00 | 50 | 1008.4 |
| 20260508060522 | 55 | 177 | 0.0 | 0.0 | 0.00 | 0.00 | 0.00 | 49 | 1008.2 |
| 20260508060034 | 55 | 108 | 0.0 | 0.0 | 0.00 | 0.00 | 0.00 | 48 | 1008.2 |
| 20260508055529 | 55 | 107 | 0.0 | 0.0 | 0.00 | 0.00 | 0.00 | 50 | 1008.0 |
| 20260508055035 | 55 | 107 | 0.0 | 1.0 | 0.00 | 0.00 | 0.00 | 48 | 1008.0 |
| 20260508054542 | 56 | 107 | 0.0 | 1.0 | 0.00 | 0.00 | 0.00 | 50 | 1008.0 |
| 20260508054026 | 56 | 108 | 0.0 | 1.0 | 0.00 | 0.00 | 0.00 | 50 | 1008.0 |
| 20260508053536 | 56 | 108 | 0.0 | 1.0 | 0.00 | 0.00 | 0.00 | 49 | 1008.0 |
| 20260508053031 | 56 | 112 | 0.0 | 1.0 | 0.00 | 0.00 | 0.00 | 47 | 1008.0 |
| 20260508052527 | 56 | 112 | 0.0 | 0.0 | 0.00 | 0.00 | 0.00 | 48 | 1008.0 |
| 20260508052037 | 56 | 111 | 0.0 | 0.0 | 0.00 | 0.00 | 0.00 | 49 | 1007.9 |
| 20260508051539 | 56 | 111 | 0.0 | 0.0 | 0.00 | 0.00 | 0.00 | 48 | 1008.0 |
| 20260508051033 | 56 | 112 | 0.0 | 0.0 | 0.00 | 0.00 | 0.00 | 47 | 1008.0 |
| 20260508050528 | 57 | 111 | 0.0 | 0.0 | 0.00 | 0.00 | 0.00 | 48 | 1008.0 |
| 20260508050022 | 57 | 112 | 0.0 | 0.0 | 0.00 | 0.00 | 0.00 | 46 | 1008.1 |
| 20260508045531 | 57 | 111 | 0.0 | 0.0 | 0.00 | 0.00 | 0.00 | 44 | 1008.1 |
| 20260508045028 | 58 | 112 | 0.0 | 0.0 | 0.00 | 0.00 | 0.00 | 44 | 1008.2 |
| 20260508044542 | 58 | 112 | 0.0 | 0.0 | 0.00 | 0.00 | 0.00 | 44 | 1008.1 |
| 20260508044032 | 59 | 111 | 0.0 | 0.0 | 0.00 | 0.00 | 0.00 | 42 | 1008.2 |
| 20260508043524 | 59 | 112 | 0.0 | 0.0 | 0.00 | 0.00 | 0.00 | 41 | 1008.2 |
| 20260508043032 | 60 | 112 | 0.0 | 0.0 | 0.00 | 0.00 | 0.00 | 39 | 1008.1 |
| 20260508042527 | 60 | 112 | 0.0 | 0.0 | 0.00 | 0.00 | 0.00 | 38 | 1008.0 |
| 20260508042024 | 60 | 111 | 0.0 | 0.0 | 0.00 | 0.00 | 0.00 | 38 | 1008.1 |
| 20260508041533 | 60 | 112 | 0.0 | 0.0 | 0.00 | 0.00 | 0.00 | 38 | 1008.0 |
| 20260508041028 | 60 | 112 | 0.0 | 0.0 | 0.00 | 0.00 | 0.00 | 39 | 1008.1 |
| 20260508040526 | 60 | 112 | 0.0 | 1.0 | 0.00 | 0.00 | 0.00 | 41 | 1008.0 |
| 20260508040047 | 60 | 112 | 0.0 | 1.0 | 0.00 | 0.00 | 0.00 | 41 | 1007.9 |
| 20260508035528 | 60 | 111 | 0.0 | 0.0 | 0.00 | 0.00 | 0.00 | 40 | 1007.9 |
| 20260508035028 | 60 | 111 | 0.0 | 0.0 | 0.00 | 0.00 | 0.00 | 40 | 1007.8 |
| 20260508034542 | 61 | 112 | 0.0 | 0.0 | 0.00 | 0.00 | 0.00 | 39 | 1007.6 |
| 20260508034025 | 61 | 112 | 0.0 | 0.0 | 0.00 | 0.00 | 0.00 | 39 | 1007.3 |
| 20260508033522 | 62 | 112 | 0.0 | 0.0 | 0.00 | 0.00 | 0.00 | 38 | 1007.2 |
| 20260508033031 | 62 | 112 | 0.0 | 0.0 | 0.00 | 0.00 | 0.00 | 38 | 1007.1 |
| 20260508032527 | 62 | 111 | 0.0 | 0.0 | 0.00 | 0.00 | 0.00 | 37 | 1007.1 |
| 20260508032026 | 63 | 112 | 0.0 | 0.0 | 0.00 | 0.00 | 0.00 | 37 | 1007.0 |
| 20260508031534 | 63 | 112 | 0.0 | 0.0 | 0.00 | 0.00 | 0.00 | 37 | 1007.0 |
| 20260508031030 | 63 | 112 | 0.0 | 0.0 | 0.00 | 0.00 | 0.00 | 36 | 1007.0 |
| 20260508030524 | 64 | 112 | 0.0 | 0.0 | 0.00 | 0.00 | 0.00 | 35 | 1007.0 |
| 20260508030034 | 64 | 112 | 0.0 | 0.0 | 0.00 | 0.00 | 0.00 | 34 | 1006.9 |
| 20260508025532 | 64 | 112 | 0.0 | 0.0 | 0.00 | 0.00 | 0.00 | 33 | 1006.9 |
| 20260508025022 | 65 | 112 | 0.0 | 0.0 | 0.00 | 0.00 | 0.00 | 32 | 1006.9 |
| 20260508024532 | 65 | 111 | 0.0 | 0.0 | 0.00 | 0.00 | 0.00 | 30 | 1006.8 |
| 20260508024031 | 66 | 112 | 0.0 | 0.0 | 0.00 | 0.00 | 0.00 | 30 | 1006.7 |
| 20260508023536 | 66 | 112 | 0.0 | 0.0 | 0.00 | 0.00 | 0.00 | 29 | 1006.8 |
| 20260508023034 | 67 | 112 | 0.0 | 0.0 | 0.00 | 0.00 | 0.00 | 28 | 1006.7 |
| 20260508022530 | 67 | 112 | 0.0 | 0.0 | 0.00 | 0.00 | 0.00 | 28 | 1006.6 |
| 20260508022026 | 67 | 112 | 0.0 | 0.0 | 0.00 | 0.00 | 0.00 | 26 | 1006.6 |
| 20260508021521 | 68 | 112 | 0.0 | 0.0 | 0.00 | 0.00 | 0.00 | 26 | 1006.5 |
| 20260508021033 | 68 | 112 | 0.0 | 0.0 | 0.00 | 0.00 | 0.00 | 24 | 1006.5 |
| 20260508020527 | 69 | 112 | 0.0 | 0.0 | 0.00 | 0.00 | 0.00 | 23 | 1006.5 |
| 20260508020024 | 69 | 111 | 0.0 | 0.0 | 0.00 | 0.00 | 0.00 | 23 | 1006.4 |
| 20260508015532 | 70 | 111 | 0.0 | 0.0 | 0.00 | 0.00 | 0.00 | 22 | 1006.4 |
| 20260508015026 | 71 | 112 | 0.0 | 0.0 | 0.00 | 0.00 | 0.00 | 22 | 1006.4 |
| 20260508014523 | 71 | 111 | 0.0 | 0.0 | 0.00 | 0.00 | 0.00 | 22 | 1006.4 |
| 20260508014032 | 72 | 111 | 0.0 | 0.0 | 0.00 | 0.00 | 0.00 | 21 | 1006.3 |
| 20260508013526 | 73 | 112 | 0.0 | 0.0 | 0.00 | 0.00 | 0.00 | 21 | 1006.2 |
| 20260508013138 | 74 | 112 | 0.0 | 0.0 | 0.00 | 0.00 | 0.00 | 21 | 1006.3 |
| 20260508012522 | 75 | 112 | 0.0 | 0.0 | 0.00 | 0.00 | 0.00 | 19 | 1006.2 |
| 20260508012033 | 75 | 111 | 0.0 | 0.0 | 0.00 | 0.00 | 0.00 | 19 | 1006.2 |
| 20260508011529 | 76 | 112 | 0.0 | 1.0 | 0.00 | 0.00 | 0.00 | 18 | 1006.2 |
| 20260508011035 | 77 | 112 | 0.0 | 1.0 | 0.00 | 0.00 | 0.00 | 17 | 1006.2 |
| 20260508010530 | 77 | 177 | 0.0 | 0.0 | 0.00 | 0.00 | 0.00 | 15 | 1006.3 |
| 20260508010030 | 78 | 177 | 0.0 | 1.0 | 0.00 | 0.00 | 0.00 | 16 | 1006.3 |
| 20260508005523 | 78 | 217 | 0.0 | 1.0 | 0.00 | 0.00 | 0.00 | 16 | 1006.2 |
| 20260508005033 | 79 | 167 | 0.0 | 2.0 | 0.00 | 0.00 | 0.00 | 15 | 1006.4 |
| 20260508004531 | 79 | 195 | 0.0 | 3.0 | 0.00 | 0.00 | 0.00 | 14 | 1006.3 |
| 20260508004025 | 80 | 155 | 0.0 | 3.0 | 0.00 | 0.00 | 0.00 | 15 | 1006.4 |
| 20260508003534 | 80 | 138 | 0.0 | 2.0 | 0.00 | 0.00 | 0.00 | 16 | 1006.3 |
| 20260508003029 | 81 | 123 | 0.0 | 1.0 | 0.00 | 0.00 | 0.00 | 14 | 1006.3 |
| 20260508002527 | 81 | 124 | 0.0 | 3.0 | 0.00 | 0.00 | 0.00 | 14 | 1006.4 |
| 20260508002037 | 82 | 132 | 0.0 | 4.0 | 0.00 | 0.00 | 0.00 | 13 | 1006.5 |
| 20260508001532 | 82 | 148 | 1.0 | 6.0 | 0.00 | 0.00 | 0.00 | 14 | 1006.5 |
| 20260508001026 | 83 | 214 | 0.0 | 3.0 | 0.00 | 0.00 | 0.00 | 14 | 1006.5 |
| 20260508000524 | 83 | 217 | 0.0 | 5.0 | 0.00 | 0.00 | 0.00 | 14 | 1006.5 |
| 20260508000033 | 83 | 143 | 2.0 | 5.0 | 0.00 | 0.00 | 0.00 | 13 | 1006.6 |
| 20260507235526 | 83 | 257 | 0.0 | 2.0 | 0.00 | 0.00 | 0.00 | 15 | 1006.6 |
| 20260507235024 | 83 | 112 | 0.0 | 4.0 | 0.00 | 0.00 | 0.00 | 14 | 1006.7 |
| 20260507234546 | 83 | 222 | 1.0 | 5.0 | 0.00 | 0.00 | 0.00 | 13 | 1006.6 |
| 20260507234032 | 84 | 121 | 0.0 | 5.0 | 0.00 | 0.00 | 0.00 | 14 | 1006.7 |
| 20260507233526 | 84 | 261 | 1.0 | 3.0 | 0.00 | 0.00 | 0.00 | 14 | 1006.7 |
| 20260507233039 | 84 | 106 | 0.0 | 3.0 | 0.00 | 0.00 | 0.00 | 13 | 1006.8 |
| 20260507232529 | 83 | 161 | 0.0 | 4.0 | 0.00 | 0.00 | 0.00 | 12 | 1006.8 |
| 20260507232024 | 83 | 209 | 1.0 | 4.0 | 0.00 | 0.00 | 0.00 | 13 | 1006.7 |
| 20260507231533 | 83 | 118 | 0.0 | 6.0 | 0.00 | 0.00 | 0.00 | 13 | 1006.8 |
| 20260507231028 | 83 | 239 | 0.0 | 6.0 | 0.00 | 0.00 | 0.00 | 14 | 1006.8 |
| 20260507230523 | 83 | 146 | 1.0 | 5.0 | 0.00 | 0.00 | 0.00 | 14 | 1006.9 |
| 20260507230035 | 82 | 91 | 0.0 | 5.0 | 0.00 | 0.00 | 0.00 | 13 | 1006.9 |
| 20260507225534 | 83 | 84 | 2.0 | 6.0 | 0.00 | 0.00 | 0.00 | 13 | 1007.0 |
| 20260507225026 | 84 | 110 | 1.0 | 6.0 | 0.00 | 0.00 | 0.00 | 13 | 1007.0 |
| 20260507224536 | 85 | 201 | 0.0 | 6.0 | 0.00 | 0.00 | 0.00 | 13 | 1007.0 |
| 20260507224030 | 85 | 188 | 1.0 | 4.0 | 0.00 | 0.00 | 0.00 | 14 | 1007.1 |
| 20260507223535 | 84 | 143 | 0.0 | 5.0 | 0.00 | 0.00 | 0.00 | 13 | 1007.1 |
| 20260507223023 | 85 | 110 | 0.0 | 5.0 | 0.00 | 0.00 | 0.00 | 13 | 1007.1 |
| 20260507222535 | 85 | 146 | 0.0 | 5.0 | 0.00 | 0.00 | 0.00 | 13 | 1007.1 |
| 20260507222029 | 85 | 162 | 1.0 | 5.0 | 0.00 | 0.00 | 0.00 | 13 | 1007.1 |
| 20260507221531 | 85 | 224 | 1.0 | 5.0 | 0.00 | 0.00 | 0.00 | 15 | 1007.2 |
| 20260507221034 | 84 | 265 | 0.0 | 6.0 | 0.00 | 0.00 | 0.00 | 15 | 1007.2 |
| 20260507220530 | 84 | 140 | 1.0 | 7.0 | 0.00 | 0.00 | 0.00 | 14 | 1007.3 |
| 20260507220034 | 84 | 172 | 2.0 | 8.0 | 0.00 | 0.00 | 0.00 | 14 | 1007.3 |
| 20260507215535 | 85 | 120 | 2.0 | 8.0 | 0.00 | 0.00 | 0.00 | 14 | 1007.4 |
| 20260507215029 | 85 | 214 | 1.0 | 7.0 | 0.00 | 0.00 | 0.00 | 14 | 1007.5 |
| 20260507214525 | 85 | 133 | 1.0 | 5.0 | 0.00 | 0.00 | 0.00 | 14 | 1007.5 |
| 20260507214021 | 84 | 139 | 1.0 | 6.0 | 0.00 | 0.00 | 0.00 | 15 | 1007.6 |
| 20260507213531 | 84 | 103 | 0.0 | 5.0 | 0.00 | 0.00 | 0.00 | 15 | 1007.7 |
| 20260507213029 | 84 | 129 | 1.0 | 7.0 | 0.00 | 0.00 | 0.00 | 15 | 1007.7 |
| 20260507212533 | 84 | 111 | 2.0 | 7.0 | 0.00 | 0.00 | 0.00 | 15 | 1007.6 |
| 20260507212028 | 84 | 129 | 0.0 | 1.0 | 0.00 | 0.00 | 0.00 | 14 | 1007.7 |
| 20260507211524 | 85 | 25 | 0.0 | 3.0 | 0.00 | 0.00 | 0.00 | 14 | 1007.8 |
| 20260507211033 | 85 | 211 | 0.0 | 5.0 | 0.00 | 0.00 | 0.00 | 16 | 1008.1 |
| 20260507210529 | 85 | 205 | 0.0 | 5.0 | 0.00 | 0.00 | 0.00 | 16 | 1008.1 |
| 20260507210030 | 84 | 231 | 0.0 | 4.0 | 0.00 | 0.00 | 0.00 | 16 | 1008.0 |
| 20260507205539 | 84 | 252 | 0.0 | 3.0 | 0.00 | 0.00 | 0.00 | 15 | 1008.1 |
| 20260507205030 | 83 | 204 | 0.0 | 3.0 | 0.00 | 0.00 | 0.00 | 16 | 1008.1 |
| 20260507204524 | 83 | 114 | 1.0 | 3.0 | 0.00 | 0.00 | 0.00 | 16 | 1008.2 |
| 20260507204036 | 84 | 110 | 1.0 | 4.0 | 0.00 | 0.00 | 0.00 | 16 | 1008.3 |
| 20260507203528 | 84 | 115 | 1.0 | 3.0 | 0.00 | 0.00 | 0.00 | 16 | 1008.4 |
| 20260507203038 | 83 | 202 | 1.0 | 7.0 | 0.00 | 0.00 | 0.00 | 17 | 1008.4 |
| 20260507202531 | 82 | 159 | 2.0 | 7.0 | 0.00 | 0.00 | 0.00 | 17 | 1008.5 |
| 20260507202028 | 83 | 143 | 2.0 | 6.0 | 0.00 | 0.00 | 0.00 | 17 | 1008.7 |
| 20260507201535 | 83 | 231 | 2.0 | 7.0 | 0.00 | 0.00 | 0.00 | 18 | 1008.8 |
| 20260507201032 | 82 | 108 | 1.0 | 7.0 | 0.00 | 0.00 | 0.00 | 19 | 1008.7 |
| 20260507200526 | 82 | 143 | 1.0 | 5.0 | 0.00 | 0.00 | 0.00 | 18 | 1008.9 |
| 20260507200022 | 82 | 108 | 1.0 | 5.0 | 0.00 | 0.00 | 0.00 | 18 | 1009.0 |
| 20260507195533 | 82 | 110 | 0.0 | 5.0 | 0.00 | 0.00 | 0.00 | 18 | 1009.0 |
| 20260507195027 | 83 | 98 | 2.0 | 5.0 | 0.00 | 0.00 | 0.00 | 19 | 1009.2 |
| 20260507194533 | 82 | 224 | 0.0 | 4.0 | 0.00 | 0.00 | 0.00 | 20 | 1009.3 |
| 20260507194033 | 81 | 5 | 0.0 | 7.0 | 0.00 | 0.00 | 0.00 | 19 | 1009.4 |
| 20260507193528 | 82 | 165 | 2.0 | 5.0 | 0.00 | 0.00 | 0.00 | 19 | 1009.4 |
| 20260507193021 | 82 | 226 | 1.0 | 5.0 | 0.00 | 0.00 | 0.00 | 20 | 1009.6 |
| 20260507192530 | 81 | 105 | 1.0 | 5.0 | 0.00 | 0.00 | 0.00 | 21 | 1009.7 |
| 20260507192028 | 80 | 248 | 0.0 | 4.0 | 0.00 | 0.00 | 0.00 | 21 | 1009.7 |
| 20260507191523 | 80 | 129 | 1.0 | 4.0 | 0.00 | 0.00 | 0.00 | 20 | 1009.9 |
| 20260507191034 | 80 | 93 | 0.0 | 4.0 | 0.00 | 0.00 | 0.00 | 20 | 1010.0 |
| 20260507190528 | 80 | 110 | 1.0 | 5.0 | 0.00 | 0.00 | 0.00 | 22 | 1010.1 |
| 20260507190037 | 81 | 113 | 1.0 | 5.0 | 0.00 | 0.00 | 0.00 | 20 | 1010.1 |
| 20260507185534 | 81 | 149 | 1.0 | 4.0 | 0.00 | 0.00 | 0.00 | 21 | 1010.3 |
| 20260507185032 | 82 | 162 | 1.0 | 5.0 | 0.00 | 0.00 | 0.00 | 21 | 1010.4 |
| 20260507184544 | 81 | 271 | 0.0 | 5.0 | 0.00 | 0.00 | 0.00 | 21 | 1010.4 |
| 20260507184031 | 81 | 260 | 0.0 | 3.0 | 0.00 | 0.00 | 0.00 | 22 | 1010.4 |
| 20260507183526 | 80 | 219 | 0.0 | 3.0 | 0.00 | 0.00 | 0.00 | 23 | 1010.5 |
| 20260507183041 | 80 | 218 | 0.0 | 6.0 | 0.00 | 0.00 | 0.00 | 22 | 1010.6 |
| 20260507182530 | 80 | 153 | 1.0 | 6.0 | 0.00 | 0.00 | 0.00 | 22 | 1010.7 |
| 20260507182025 | 80 | 285 | 0.0 | 6.0 | 0.00 | 0.00 | 0.00 | 23 | 1010.7 |
| 20260507181535 | 80 | 190 | 0.0 | 6.0 | 0.00 | 0.00 | 0.00 | 22 | 1010.8 |
| 20260507181032 | 80 | 155 | 1.0 | 6.0 | 0.00 | 0.00 | 0.00 | 24 | 1010.8 |
| 20260507180524 | 80 | 211 | 1.0 | 3.0 | 0.00 | 0.00 | 0.00 | 24 | 1011.0 |
| 20260507180024 | 79 | 145 | 0.0 | 3.0 | 0.00 | 0.00 | 0.00 | 23 | 1011.1 |
| 20260507175534 | 78 | 219 | 0.0 | 5.0 | 0.00 | 0.00 | 0.00 | 26 | 1011.2 |
| 20260507175030 | 78 | 112 | 0.0 | 5.0 | 0.00 | 0.00 | 0.00 | 26 | 1011.2 |
| 20260507174531 | 77 | 229 | 0.0 | 5.0 | 0.00 | 0.00 | 0.00 | 26 | 1011.2 |
| 20260507174037 | 77 | 207 | 1.0 | 4.0 | 0.00 | 0.00 | 0.00 | 26 | 1011.3 |
| 20260507173531 | 76 | 252 | 0.0 | 7.0 | 0.00 | 0.00 | 0.00 | 28 | 1011.4 |
| 20260507173039 | 76 | 110 | 3.0 | 7.0 | 0.00 | 0.00 | 0.00 | 26 | 1011.4 |
| 20260507172531 | 76 | 152 | 1.0 | 4.0 | 0.00 | 0.00 | 0.00 | 26 | 1011.5 |
| 20260507172025 | 76 | 301 | 2.0 | 4.0 | 0.00 | 0.00 | 0.00 | 27 | 1011.4 |
| 20260507171521 | 76 | 172 | 0.0 | 3.0 | 0.00 | 0.00 | 0.00 | 27 | 1011.8 |
| 20260507171032 | 75 | 22 | 0.0 | 5.0 | 0.00 | 0.00 | 0.00 | 30 | 1011.8 |
| 20260507170527 | 74 | 105 | 0.0 | 4.0 | 0.00 | 0.00 | 0.00 | 28 | 1011.9 |
| 20260507170023 | 75 | 117 | 1.0 | 4.0 | 0.00 | 0.00 | 0.00 | 26 | 1012.0 |
| 20260507165531 | 75 | 115 | 0.0 | 2.0 | 0.00 | 0.00 | 0.00 | 28 | 1012.0 |
| 20260507165028 | 74 | 16 | 0.0 | 2.0 | 0.00 | 0.00 | 0.00 | 29 | 1012.1 |
| 20260507164533 | 73 | 4 | 0.0 | 3.0 | 0.00 | 0.00 | 0.00 | 29 | 1012.2 |
| 20260507164034 | 72 | 359 | 0.0 | 5.0 | 0.00 | 0.00 | 0.00 | 28 | 1012.2 |
| 20260507163525 | 72 | 193 | 1.0 | 5.0 | 0.00 | 0.00 | 0.00 | 28 | 1012.3 |
| 20260507163034 | 72 | 149 | 0.0 | 3.0 | 0.00 | 0.00 | 0.00 | 30 | 1012.4 |
| 20260507162530 | 71 | 294 | 0.0 | 4.0 | 0.00 | 0.00 | 0.00 | 29 | 1012.4 |
| 20260507162026 | 71 | 108 | 0.0 | 4.0 | 0.00 | 0.00 | 0.00 | 30 | 1012.5 |
| 20260507161521 | 70 | 176 | 0.0 | 4.0 | 0.00 | 0.00 | 0.00 | 31 | 1012.6 |
| 20260507161032 | 70 | 67 | 0.0 | 3.0 | 0.00 | 0.00 | 0.00 | 33 | 1012.6 |
| 20260507160528 | 69 | 274 | 1.0 | 5.0 | 0.00 | 0.00 | 0.00 | 32 | 1012.8 |
| 20260507160026 | 69 | 32 | 2.0 | 7.0 | 0.00 | 0.00 | 0.00 | 33 | 1012.9 |
| 20260507155532 | 68 | 6 | 0.0 | 7.0 | 0.00 | 0.00 | 0.00 | 34 | 1012.9 |
| 20260507155028 | 68 | 300 | 1.0 | 4.0 | 0.00 | 0.00 | 0.00 | 34 | 1013.0 |
| 20260507154524 | 67 | 269 | 0.0 | 3.0 | 0.00 | 0.00 | 0.00 | 35 | 1013.0 |
| 20260507154035 | 66 | 39 | 0.0 | 6.0 | 0.00 | 0.00 | 0.00 | 36 | 1013.0 |
| 20260507153531 | 65 | 334 | 2.0 | 6.0 | 0.00 | 0.00 | 0.00 | 36 | 1013.1 |
| 20260507153033 | 65 | 54 | 1.0 | 5.0 | 0.00 | 0.00 | 0.00 | 38 | 1013.0 |
| 20260507152522 | 64 | 11 | 0.0 | 5.0 | 0.00 | 0.00 | 0.00 | 39 | 1013.1 |
| 20260507152032 | 63 | 9 | 1.0 | 7.0 | 0.00 | 0.00 | 0.00 | 40 | 1013.2 |
| 20260507151531 | 63 | 41 | 0.0 | 7.0 | 0.00 | 0.00 | 0.00 | 41 | 1013.2 |
| 20260507151021 | 62 | 15 | 1.0 | 6.0 | 0.00 | 0.00 | 0.00 | 42 | 1013.2 |
| 20260507150533 | 62 | 13 | 1.0 | 5.0 | 0.00 | 0.00 | 0.00 | 43 | 1013.4 |
| 20260507150031 | 62 | 41 | 1.0 | 6.0 | 0.00 | 0.00 | 0.00 | 44 | 1013.4 |
| 20260507145522 | 61 | 309 | 1.0 | 6.0 | 0.00 | 0.00 | 0.00 | 44 | 1013.4 |
| 20260507145032 | 60 | 346 | 0.0 | 3.0 | 0.00 | 0.00 | 0.00 | 45 | 1013.5 |
| 20260507144534 | 60 | 43 | 0.0 | 3.0 | 0.00 | 0.00 | 0.00 | 45 | 1013.6 |
| 20260507144022 | 60 | 37 | 0.0 | 3.0 | 0.00 | 0.00 | 0.00 | 46 | 1013.6 |
| 20260507143530 | 59 | 41 | 0.0 | 5.0 | 0.00 | 0.00 | 0.00 | 46 | 1013.7 |
| 20260507143030 | 59 | 46 | 0.0 | 5.0 | 0.00 | 0.00 | 0.00 | 46 | 1013.6 |
| 20260507142522 | 59 | 82 | 1.0 | 7.0 | 0.00 | 0.00 | 0.00 | 46 | 1013.7 |
| 20260507142033 | 58 | 49 | 1.0 | 7.0 | 0.00 | 0.00 | 0.00 | 46 | 1013.7 |
| 20260507141529 | 58 | 50 | 1.0 | 5.0 | 0.00 | 0.00 | 0.00 | 46 | 1013.7 |
| 20260507141024 | 58 | 351 | 0.0 | 6.0 | 0.00 | 0.00 | 0.00 | 46 | 1013.7 |
| 20260507140533 | 58 | 329 | 2.0 | 6.0 | 0.00 | 0.00 | 0.00 | 46 | 1013.7 |
| 20260507140027 | 57 | 29 | 0.0 | 5.0 | 0.00 | 0.00 | 0.00 | 47 | 1013.7 |
| 20260507135522 | 57 | 309 | 1.0 | 7.0 | 0.00 | 0.00 | 0.00 | 47 | 1013.7 |
| 20260507135031 | 57 | 91 | 1.0 | 7.0 | 0.00 | 0.00 | 0.00 | 47 | 1013.6 |
| 20260507134526 | 57 | 41 | 0.0 | 8.0 | 0.00 | 0.00 | 0.00 | 47 | 1013.5 |
| 20260507134035 | 56 | 51 | 1.0 | 8.0 | 0.00 | 0.00 | 0.00 | 47 | 1013.5 |
| 20260507133531 | 56 | 72 | 2.0 | 8.0 | 0.00 | 0.00 | 0.00 | 48 | 1013.4 |
| 20260507133027 | 56 | 50 | 0.0 | 9.0 | 0.00 | 0.00 | 0.00 | 49 | 1013.3 |
| 20260507132535 | 55 | 61 | 0.0 | 9.0 | 0.00 | 0.00 | 0.00 | 49 | 1013.3 |
| 20260507132032 | 55 | 46 | 1.0 | 5.0 | 0.00 | 0.00 | 0.00 | 50 | 1013.2 |
| 20260507131524 | 54 | 17 | 1.0 | 8.0 | 0.00 | 0.00 | 0.00 | 52 | 1013.1 |
| 20260507131036 | 53 | 63 | 1.0 | 8.0 | 0.00 | 0.00 | 0.00 | 54 | 1013.1 |
| 20260507130533 | 51 | 122 | 0.0 | 5.0 | 0.00 | 0.00 | 0.00 | 54 | 1013.1 |
| 20260507130028 | 50 | 33 | 0.0 | 3.0 | 0.00 | 0.00 | 0.00 | 52 | 1013.2 |
| 20260507125523 | 50 | 68 | 0.0 | 2.0 | 0.00 | 0.00 | 0.00 | 51 | 1013.2 |
| 20260507125031 | 50 | 113 | 0.0 | 1.0 | 0.00 | 0.00 | 0.00 | 50 | 1013.1 |
| 20260507124535 | 50 | 113 | 0.0 | 2.0 | 0.00 | 0.00 | 0.00 | 50 | 1013.1 |
| 20260507124024 | 50 | 114 | 1.0 | 3.0 | 0.00 | 0.00 | 0.00 | 53 | 1013.1 |
| 20260507123532 | 50 | 105 | 0.0 | 3.0 | 0.00 | 0.00 | 0.00 | 54 | 1013.0 |
| 20260507123025 | 50 | 24 | 0.0 | 0.0 | 0.00 | 0.00 | 0.00 | 52 | 1012.9 |
| 20260507122522 | 50 | 25 | 0.0 | 1.0 | 0.00 | 0.00 | 0.00 | 53 | 1012.9 |
| 20260507122032 | 50 | 25 | 0.0 | 2.0 | 0.00 | 0.00 | 0.00 | 55 | 1012.9 |
| 20260507121524 | 49 | 25 | 0.0 | 2.0 | 0.00 | 0.00 | 0.00 | 55 | 1012.8 |
| 20260507121032 | 49 | 42 | 0.0 | 1.0 | 0.00 | 0.00 | 0.00 | 55 | 1012.7 |
| 20260507120526 | 49 | 124 | 0.0 | 0.0 | 0.00 | 0.00 | 0.00 | 55 | 1012.7 |
| 20260507120022 | 48 | 124 | 0.0 | 1.0 | 0.00 | 0.00 | 0.00 | 55 | 1012.8 |
| 20260507115533 | 48 | 124 | 0.0 | 1.0 | 0.00 | 0.00 | 0.00 | 53 | 1012.7 |
| 20260507115028 | 48 | 124 | 0.0 | 1.0 | 0.00 | 0.00 | 0.00 | 51 | 1012.6 |
| 20260507114532 | 49 | 124 | 0.0 | 0.0 | 0.00 | 0.00 | 0.00 | 50 | 1012.6 |
| 20260507114034 | 49 | 124 | 0.0 | 0.0 | 0.00 | 0.00 | 0.00 | 49 | 1012.6 |
| 20260507113529 | 50 | 124 | 0.0 | 0.0 | 0.00 | 0.00 | 0.00 | 47 | 1012.6 |
| 20260507113043 | 50 | 124 | 0.0 | 1.0 | 0.00 | 0.00 | 0.00 | 46 | 1012.6 |
| 20260507112535 | 51 | 124 | 0.0 | 1.0 | 0.00 | 0.00 | 0.00 | 46 | 1012.6 |
| 20260507112023 | 51 | 132 | 0.0 | 1.0 | 0.00 | 0.00 | 0.00 | 45 | 1012.7 |
| 20260507111540 | 51 | 359 | 0.0 | 3.0 | 0.00 | 0.00 | 0.00 | 44 | 1012.5 |
| 20260507111028 | 51 | 27 | 0.0 | 3.0 | 0.00 | 0.00 | 0.00 | 44 | 1012.6 |
| 20260507110525 | 52 | 32 | 0.0 | 0.0 | 0.00 | 0.00 | 0.00 | 44 | 1012.6 |
| 20260507110035 | 52 | 32 | 0.0 | 0.0 | 0.00 | 0.00 | 0.00 | 42 | 1012.5 |
| 20260507105530 | 52 | 32 | 0.0 | 0.0 | 0.00 | 0.00 | 0.00 | 42 | 1012.5 |
| 20260507105025 | 53 | 28 | 0.0 | 0.0 | 0.00 | 0.00 | 0.00 | 41 | 1012.6 |
| 20260507104555 | 54 | 28 | 0.0 | 0.0 | 0.00 | 0.00 | 0.00 | 40 | 1012.5 |
| 20260507104033 | 54 | 29 | 0.0 | 1.0 | 0.00 | 0.00 | 0.00 | 38 | 1012.4 |
| 20260507103541 | 55 | 32 | 0.0 | 1.0 | 0.00 | 0.00 | 0.00 | 38 | 1012.4 |
| 20260507103029 | 55 | 40 | 0.0 | 3.0 | 0.00 | 0.00 | 0.00 | 36 | 1012.4 |
| 20260507102524 | 55 | 39 | 0.0 | 1.0 | 0.00 | 0.00 | 0.00 | 35 | 1012.4 |
| 20260507102035 | 54 | 65 | 0.0 | 1.0 | 0.00 | 0.00 | 0.00 | 33 | 1012.4 |
| 20260507101529 | 54 | 11 | 0.0 | 3.0 | 0.00 | 0.00 | 0.00 | 32 | 1012.4 |
| 20260507101025 | 55 | 4 | 0.0 | 3.0 | 0.00 | 0.00 | 0.00 | 32 | 1012.3 |
| 20260507100521 | 55 | 19 | 0.0 | 1.0 | 0.00 | 0.00 | 0.00 | 31 | 1012.3 |
| 20260507100031 | 55 | 19 | 0.0 | 3.0 | 0.00 | 0.00 | 0.00 | 31 | 1012.2 |
| 20260507095526 | 56 | 37 | 0.0 | 3.0 | 0.00 | 0.00 | 0.00 | 30 | 1012.1 |
| 20260507095021 | 56 | 255 | 0.0 | 1.0 | 0.00 | 0.00 | 0.00 | 31 | 1012.0 |
| 20260507094534 | 57 | 273 | 0.0 | 3.0 | 0.00 | 0.00 | 0.00 | 29 | 1012.0 |
| 20260507094027 | 57 | 18 | 0.0 | 4.0 | 0.00 | 0.00 | 0.00 | 26 | 1012.0 |
| 20260507093539 | 57 | 11 | 0.0 | 6.0 | 0.00 | 0.00 | 0.00 | 26 | 1012.0 |
| 20260507093034 | 57 | 19 | 1.0 | 7.0 | 0.00 | 0.00 | 0.00 | 27 | 1012.0 |
| 20260507092526 | 57 | 68 | 0.0 | 8.0 | 0.00 | 0.00 | 0.00 | 28 | 1012.0 |
| 20260507092037 | 56 | 307 | 3.0 | 8.0 | 0.00 | 0.00 | 0.00 | 30 | 1012.0 |
| 20260507091536 | 54 | 15 | 0.0 | 3.0 | 0.00 | 0.00 | 0.00 | 33 | 1012.0 |
| 20260507091025 | 54 | 48 | 0.0 | 1.0 | 0.00 | 0.00 | 0.00 | 33 | 1012.0 |
| 20260507090537 | 54 | 294 | 0.0 | 1.0 | 0.00 | 0.00 | 0.00 | 35 | 1012.0 |
| 20260507090033 | 54 | 34 | 0.0 | 1.0 | 0.00 | 0.00 | 0.00 | 32 | 1011.9 |
| 20260507085527 | 54 | 34 | 0.0 | 2.0 | 0.00 | 0.00 | 0.00 | 34 | 1011.9 |
| 20260507085022 | 53 | 27 | 0.0 | 2.0 | 0.00 | 0.00 | 0.00 | 34 | 1011.8 |
| 20260507084542 | 53 | 21 | 0.0 | 2.0 | 0.00 | 0.00 | 0.00 | 33 | 1011.7 |
| 20260507084029 | 52 | 339 | 0.0 | 0.0 | 0.00 | 0.00 | 0.00 | 35 | 1011.8 |
| 20260507083542 | 53 | 339 | 0.0 | 0.0 | 0.00 | 0.00 | 0.00 | 35 | 1011.8 |
| 20260507083027 | 53 | 340 | 0.0 | 0.0 | 0.00 | 0.00 | 0.00 | 35 | 1011.8 |
| 20260507082535 | 54 | 340 | 0.0 | 1.0 | 0.00 | 0.00 | 0.00 | 31 | 1011.8 |
| 20260507082030 | 54 | 340 | 0.0 | 1.0 | 0.00 | 0.00 | 0.00 | 30 | 1011.8 |
| 20260507081535 | 55 | 341 | 0.0 | 0.0 | 0.00 | 0.00 | 0.00 | 30 | 1011.8 |
| 20260507081023 | 56 | 340 | 0.0 | 0.0 | 0.00 | 0.00 | 0.00 | 29 | 1011.8 |
| 20260507080532 | 56 | 340 | 0.0 | 0.0 | 0.00 | 0.00 | 0.00 | 26 | 1011.8 |
| 20260507080029 | 56 | 340 | 0.0 | 0.0 | 0.00 | 0.00 | 0.00 | 26 | 1011.7 |
| 20260507075524 | 57 | 340 | 0.0 | 0.0 | 0.00 | 0.00 | 0.00 | 25 | 1011.7 |
| 20260507075037 | 57 | 340 | 0.0 | 1.0 | 0.00 | 0.00 | 0.00 | 25 | 1011.5 |
| 20260507074531 | 57 | 340 | 0.0 | 1.0 | 0.00 | 0.00 | 0.00 | 25 | 1011.5 |
| 20260507074025 | 57 | 21 | 0.0 | 1.0 | 0.00 | 0.00 | 0.00 | 25 | 1011.6 |
| 20260507073536 | 57 | 348 | 0.0 | 0.0 | 0.00 | 0.00 | 0.00 | 25 | 1011.9 |
| 20260507073026 | 58 | 348 | 0.0 | 1.0 | 0.00 | 0.00 | 0.00 | 24 | 1011.9 |
| 20260507072524 | 58 | 348 | 0.0 | 1.0 | 0.00 | 0.00 | 0.00 | 23 | 1011.8 |
| 20260507072038 | 58 | 20 | 0.0 | 1.0 | 0.00 | 0.00 | 0.00 | 24 | 1011.9 |
| 20260507071529 | 59 | 350 | 0.0 | 0.0 | 0.00 | 0.00 | 0.00 | 22 | 1011.9 |
| 20260507071028 | 60 | 350 | 0.0 | 0.0 | 0.00 | 0.00 | 0.00 | 23 | 1012.0 |
| 20260507070535 | 61 | 350 | 0.0 | 1.0 | 0.00 | 0.00 | 0.00 | 21 | 1012.1 |
| 20260507070030 | 62 | 346 | 0.0 | 1.0 | 0.00 | 0.00 | 0.00 | 20 | 1012.0 |
| 20260507065527 | 63 | 40 | 0.0 | 1.0 | 0.00 | 0.00 | 0.00 | 19 | 1012.0 |
| 20260507065036 | 64 | 36 | 0.0 | 1.0 | 0.00 | 0.00 | 0.00 | 19 | 1011.8 |
| 20260507064531 | 64 | 351 | 0.0 | 3.0 | 0.00 | 0.00 | 0.00 | 19 | 1011.8 |
| 20260507064025 | 64 | 343 | 0.0 | 3.0 | 0.00 | 0.00 | 0.00 | 20 | 1011.8 |
| 20260507063535 | 63 | 300 | 0.0 | 3.0 | 0.00 | 0.00 | 0.00 | 21 | 1011.9 |
| 20260507063029 | 61 | 41 | 0.0 | 2.0 | 0.00 | 0.00 | 0.00 | 21 | 1011.8 |